SKY MUSTER 2 (41794 NORAD) Tracking and Keplerian Element Data

This shows tracking and keplerian element data for the satellite.

Feedback or suggestion? Click here.




ElementValue
Catalog41794
NameSKY MUSTER 2
Epoch Orbit1277
Epoch Day91.88035339
Epoch Year2020
RAAN246.3238
Inclination0.0155
Eccentricity0.000156
Argument of Perigee112.5779
Mean Anonmoly292.526
Mean Motion1.00271417
Decay Rate-2.48E-06
L11 41794U 16060B 20091.88035339 -.00000248 00000-0 00000-0 0 9994
L22 41794 0.0155 246.3238 0001560 112.5779 292.5260 1.00271417 12776

Live tracking and technical data element details for SKY MUSTER 2 (NORAD 41794). SKY MUSTER 2 can be tracked NOW for your location showing map with azimuth and elevation plus other details from your city location.

Track the satellite on the map from your city or location and see movement details for azimuth, elevation, latitude, longitude, range, height, and movement on the map or in text.







IsCatalogInMostPopularTable: catalog: 41794, numindb: 326
Update: records affected: 1



GetName: 41794 SKY MUSTER 2

Hit Count: updated at: Fri, 03 Apr 2020 06:23:00 GMT